Home > Weather > Jalpaiguri > Past weeks

Flag for India Past Weather in Jalpaiguri, West Bengal, India — Yesterday and Last 2 Weeks

Now
95 °F

Broken clouds.


Feels Like: 103 °F
Forecast: 72 / 88 °F
Wind: No wind

Location: Lucknow / Amausi

Current Time: May 30, 2016 at 8:03:27 PM

Latest Report: May 30, 2016 at 7:00 PM


Visibility: 3 mi

Pressure: 29.59 "Hg

Humidity: 47%

Dew Point: 72 °F

Location of JalpaiguriLocation

Past Weather in Jalpaiguri — Graph

°F

Jalpaiguri Temperature Yesterday

Maximum temperature yesterday: 93 °F (at 1:30 PM)
Minimum temperature yesterday: 72 °F (at 3:00 AM)
Average temperature yesterday: 84 °F

High & Low Weather Summary for the Past Weeks

 TemperatureHumidityPressure
High115 °F (May 16, 1:30 PM)100% (May 22, 9:00 AM)29.77 "Hg (May 22, 9:00 AM)
Low72 °F (May 29, 3:00 AM)12% (May 16, 5:00 PM)29.39 "Hg (May 17, 6:30 PM)
Average93 °F52%29.51 "Hg
* Reported May 15 7:00 PM — May 30 6:30 PM, Jalpaiguri, Weather by CustomWeather, © 2016

Note: Actual official high and low records may vary slightly from our data, if they occured in-between our weather recording intervals... More about our weather records

Advertising

Jalpaiguri Weather History for the Previous 24 Hours

Scroll right to see more
 ConditionsComfort  
Time TempWeatherWind HumidityBarometerVisibility
6:30 PM
Mon, May 30
95 °FBroken clouds.No wind47%29.59 "Hg3 mi
5:30 PM97 °FScattered clouds.2 mph44%29.56 "Hg3 mi
5:00 PM99 °FScattered clouds.2 mph44%29.56 "Hg3 mi
4:30 PM99 °FScattered clouds.5 mph39%29.56 "Hg3 mi
4:00 PM99 °FScattered clouds.2 mph44%29.56 "Hg3 mi
3:30 PM99 °FScattered clouds.2 mph44%29.56 "Hg3 mi
3:00 PM99 °FScattered clouds.7 mph44%29.59 "Hg3 mi
2:30 PM99 °FScattered clouds.2 mph44%29.62 "Hg3 mi
2:00 PM99 °FScattered clouds.2 mph44%29.62 "Hg3 mi
1:30 PM97 °FScattered clouds.5 mph47%29.62 "Hg3 mi
1:00 PM95 °FHaze.5 mph50%29.65 "Hg3 mi
12:30 PM95 °FScattered clouds.7 mph53%29.65 "Hg3 mi
12:00 PM93 °FScattered clouds.9 mph53%29.65 "Hg3 mi
11:30 AM93 °FScattered clouds.10 mph53%29.65 "Hg3 mi
11:00 AM91 °FScattered clouds.9 mph56%29.65 "Hg3 mi
10:00 AM90 °FScattered clouds.10 mph63%29.65 "Hg3 mi
9:30 AM90 °FScattered clouds.10 mph63%29.65 "Hg2 mi
9:00 AM86 °FScattered clouds.10 mph70%29.65 "Hg2 mi
8:30 AM84 °FScattered clouds.9 mph74%29.65 "Hg2 mi
8:00 AM84 °FScattered clouds.9 mph79%29.65 "Hg2 mi
7:30 AM81 °FBroken clouds.7 mph84%29.62 "Hg2 mi
7:00 AM81 °FBroken clouds.7 mph89%29.62 "Hg2 mi
6:00 AM79 °FBroken clouds.6 mph89%29.59 "Hg2 mi
5:30 AM79 °FPartly cloudy.5 mph89%29.59 "Hg2 mi
5:00 AM81 °FPartly cloudy.2 mph84%29.59 "Hg2 mi
4:00 AM81 °FLight rain. Partly cloudy.3 mph84%29.56 "Hg2 mi
2:00 AM81 °FThundershowers. Partly cloudy.6 mph79%29.56 "Hg2 mi
12:00 AM82 °FPassing clouds.6 mph74%29.59 "Hg2 mi
11:00 PM
Sun, May 29
82 °FPassing clouds.2 mph74%29.62 "Hg2 mi
10:00 PM82 °FPassing clouds.2 mph74%29.59 "Hg2 mi
9:00 PM84 °FPassing clouds.3 mph70%29.59 "Hg2 mi
8:30 PM84 °FPassing clouds.3 mph70%29.56 "Hg2 mi
8:00 PM86 °FPassing clouds.5 mph66%29.56 "Hg2 mi
Weather by CustomWeather, © 2016

See weather overviewHow to use our weather pages